• în România
  • Lista ţărilor
  • Pe 7 zile
  • Temperatura apei
  • Hartă satelitară
  • Meteo pe hartă
  • Widget-uri
  • user-avatar
    Intrare

    Meteo pe oră la Tatischevo

    Astăzi, 18 August, Sâmbătă

    Timp Temperatura Precipitaţii Vânt Presiune Umiditate
    00:00 +15°C° 0 mm 5 m/s 744 mmHg 69%
    01:00 +15°C° 0 mm 5 m/s 744 mmHg 71%
    02:00 +14°C° 0 mm 5 m/s 745 mmHg 72%
    03:00 +14°C° 0 mm 5 m/s 745 mmHg 74%
    04:00 +13°C° 0 mm 5 m/s 745 mmHg 74%
    05:00 +13°C° 0 mm 5 m/s 745 mmHg 74%
    06:00 +13°C° 0 mm 5 m/s 745 mmHg 75%
    07:00 +15°C° 0 mm 5 m/s 745 mmHg 68%
    08:00 +16°C° 0 mm 6 m/s 746 mmHg 61%
    09:00 +19°C° 0 mm 6 m/s 746 mmHg 54%
    10:00 +20°C° 0 mm 6 m/s 746 mmHg 50%
    11:00 +21°C° 0 mm 6 m/s 746 mmHg 47%
    12:00 +22°C° 0 mm 6 m/s 746 mmHg 43%
    13:00 +22°C° 0 mm 6 m/s 746 mmHg 43%
    14:00 +22°C° 0 mm 6 m/s 746 mmHg 43%
    15:00 +22°C° 0 mm 6 m/s 746 mmHg 42%
    16:00 +22°C° 0 mm 5 m/s 746 mmHg 45%
    17:00 +21°C° 0 mm 5 m/s 746 mmHg 49%
    18:00 +20°C° 0 mm 4 m/s 746 mmHg 52%
    19:00 +19°C° 0 mm 4 m/s 746 mmHg 56%
    20:00 +17°C° 0 mm 4 m/s 746 mmHg 60%
    21:00 +14°C° 0 mm 3 m/s 746 mmHg 64%
    22:00 +14°C° 0 mm 3 m/s 746 mmHg 67%
    23:00 +13°C° 0 mm 3 m/s 746 mmHg 69%

    Mâine, 19 August, Duminică

    Timp Temperatura Precipitaţii Vânt Presiune Umiditate
    00:00 +12°C° 0 mm 3 m/s 747 mmHg 72%
    01:00 +12°C° 0 mm 3 m/s 747 mmHg 74%
    02:00 +11°C° 0 mm 3 m/s 747 mmHg 76%
    03:00 +11°C° 0 mm 3 m/s 747 mmHg 78%
    04:00 +11°C° 0 mm 3 m/s 747 mmHg 78%
    05:00 +11°C° 0 mm 3 m/s 747 mmHg 78%
    06:00 +11°C° 0 mm 3 m/s 747 mmHg 78%
    07:00 +13°C° 0 mm 4 m/s 747 mmHg 71%
    08:00 +15°C° 0 mm 4 m/s 747 mmHg 64%
    09:00 +17°C° 0 mm 5 m/s 747 mmHg 57%
    10:00 +19°C° 0 mm 5 m/s 747 mmHg 53%
    11:00 +20°C° 0 mm 5 m/s 747 mmHg 50%
    12:00 +21°C° 0 mm 5 m/s 747 mmHg 46%
    13:00 +21°C° 0 mm 5 m/s 747 mmHg 45%
    14:00 +21°C° 0 mm 5 m/s 746 mmHg 45%
    15:00 +22°C° 0 mm 5 m/s 746 mmHg 44%
    16:00 +21°C° 0 mm 4 m/s 746 mmHg 47%
    17:00 +20°C° 0 mm 3 m/s 746 mmHg 50%
    18:00 +20°C° 0 mm 3 m/s 746 mmHg 53%
    19:00 +18°C° 0 mm 2 m/s 746 mmHg 57%
    20:00 +17°C° 0 mm 2 m/s 746 mmHg 60%
    21:00 +15°C° 0 mm 2 m/s 746 mmHg 64%
    22:00 +15°C° 0 mm 1 m/s 746 mmHg 66%
    23:00 +14°C° 0 mm 1 m/s 746 mmHg 67%

    Poimâine, 20 August, Luni

    Timp Temperatura Precipitaţii Vânt Presiune Umiditate
    00:00 +13°C° 0 mm 1 m/s 746 mmHg 69%
    01:00 +13°C° 0 mm 1 m/s 746 mmHg 71%
    02:00 +13°C° 0 mm 1 m/s 746 mmHg 72%
    03:00 +12°C° 0 mm 1 m/s 746 mmHg 73%
    04:00 +13°C° 0 mm 1 m/s 746 mmHg 73%
    05:00 +13°C° 0 mm 1 m/s 746 mmHg 72%
    06:00 +13°C° 0 mm 1 m/s 746 mmHg 72%
    07:00 +15°C° 0 mm 1 m/s 747 mmHg 65%
    08:00 +18°C° 0 mm 1 m/s 747 mmHg 58%
    09:00 +20°C° 0 mm 1 m/s 747 mmHg 52%
    10:00 +22°C° 0 mm 1 m/s 747 mmHg 48%
    11:00 +23°C° 0 mm 1 m/s 747 mmHg 44%
    12:00 +24°C° 0 mm 1 m/s 746 mmHg 40%
    13:00 +25°C° 0 mm 1 m/s 746 mmHg 39%
    14:00 +25°C° 0 mm 1 m/s 746 mmHg 38%
    15:00 +26°C° 0 mm 1 m/s 746 mmHg 37%
    16:00 +25°C° 0 mm 1 m/s 745 mmHg 40%
    17:00 +25°C° 0 mm 1 m/s 745 mmHg 43%
    18:00 +24°C° 0 mm 1 m/s 745 mmHg 47%
    19:00 +22°C° 0 mm 1 m/s 745 mmHg 50%
    20:00 +21°C° 0 mm 1 m/s 745 mmHg 53%
    21:00 +19°C° 0 mm 1 m/s 745 mmHg 57%
    22:00 +19°C° 0 mm 1 m/s 745 mmHg 58%
    23:00 +18°C° 0 mm 1 m/s 745 mmHg 60%

    21 August, Marţi

    Timp Temperatura Precipitaţii Vânt Presiune Umiditate
    00:00 +18°C° 0 mm 1 m/s 745 mmHg 62%
    01:00 +16°C° 0 mm 1 m/s 745 mmHg 63%
    02:00 +16°C° 0 mm 2 m/s 745 mmHg 64%
    03:00 +16°C° 0 mm 2 m/s 745 mmHg 65%
    04:00 +16°C° 0 mm 2 m/s 745 mmHg 65%
    05:00 +16°C° 0 mm 2 m/s 745 mmHg 65%
    06:00 +16°C° 0 mm 2 m/s 745 mmHg 65%
    07:00 +18°C° 0 mm 2 m/s 745 mmHg 59%
    08:00 +20°C° 0 mm 3 m/s 745 mmHg 53%
    09:00 +24°C° 0 mm 3 m/s 745 mmHg 46%
    10:00 +25°C° 0 mm 3 m/s 745 mmHg 43%
    11:00 +26°C° 0 mm 4 m/s 745 mmHg 40%
    12:00 +27°C° 0 mm 4 m/s 745 mmHg 37%
    13:00 +28°C° 0 mm 4 m/s 744 mmHg 37%
    14:00 +28°C° 0 mm 4 m/s 744 mmHg 36%
    15:00 +28°C° 0 mm 4 m/s 744 mmHg 36%
    16:00 +27°C° 0 mm 3 m/s 744 mmHg 39%
    17:00 +27°C° 0 mm 3 m/s 744 mmHg 43%
    18:00 +26°C° 0 mm 2 m/s 743 mmHg 47%
    19:00 +24°C° 0 mm 2 m/s 743 mmHg 49%
    20:00 +23°C° 0 mm 2 m/s 743 mmHg 51%
    21:00 +20°C° 0 mm 2 m/s 743 mmHg 54%
    22:00 +20°C° 0 mm 2 m/s 743 mmHg 54%
    23:00 +19°C° 0 mm 2 m/s 743 mmHg 54%

    22 August, Miercuri

    Timp Temperatura Precipitaţii Vânt Presiune Umiditate
    00:00 +19°C° 0 mm 2 m/s 743 mmHg 54%
    01:00 +18°C° 0 mm 2 m/s 743 mmHg 54%
    02:00 +18°C° 0 mm 3 m/s 743 mmHg 53%
    03:00 +18°C° 0 mm 3 m/s 743 mmHg 53%
    04:00 +17°C° 0 mm 3 m/s 742 mmHg 53%
    05:00 +17°C° 0 mm 3 m/s 742 mmHg 54%
    06:00 +17°C° 0 mm 3 m/s 742 mmHg 54%
    07:00 +20°C° 0 mm 4 m/s 742 mmHg 49%
    08:00 +22°C° 0 mm 4 m/s 742 mmHg 44%
    09:00 +25°C° 0 mm 5 m/s 742 mmHg 39%
    10:00 +27°C° 0 mm 5 m/s 742 mmHg 36%
    11:00 +28°C° 0 mm 6 m/s 742 mmHg 33%
    12:00 +29°C° 0 mm 7 m/s 742 mmHg 30%
    13:00 +30°C° 0 mm 7 m/s 741 mmHg 31%
    14:00 +30°C° 0 mm 7 m/s 741 mmHg 31%
    15:00 +30°C° 0 mm 7 m/s 741 mmHg 32%
    16:00 +29°C° 0 mm 6 m/s 741 mmHg 35%
    17:00 +28°C° 0 mm 5 m/s 741 mmHg 39%
    18:00 +27°C° 0 mm 4 m/s 741 mmHg 42%
    19:00 +26°C° 0 mm 4 m/s 741 mmHg 46%
    20:00 +25°C° 0 mm 3 m/s 741 mmHg 50%
    21:00 +22°C° 0 mm 3 m/s 741 mmHg 54%
    22:00 +21°C° 0,1 mm 3 m/s 741 mmHg 61%
    23:00 +20°C° 0,1 mm 3 m/s 741 mmHg 69%

    23 August, Joi

    Timp Temperatura Precipitaţii Vânt Presiune Umiditate
    00:00 +20°C° 0,1 mm 2 m/s 741 mmHg 77%
    01:00 +19°C° 0,1 mm 2 m/s 741 mmHg 78%
    02:00 +19°C° 0,1 mm 2 m/s 742 mmHg 80%
    03:00 +18°C° 0,1 mm 2 m/s 742 mmHg 82%
    04:00 +18°C° 0 mm 2 m/s 742 mmHg 80%
    05:00 +17°C° 0 mm 2 m/s 742 mmHg 79%
    06:00 +18°C° 0 mm 1 m/s 742 mmHg 77%
    07:00 +20°C° 0 mm 1 m/s 742 mmHg 69%
    08:00 +21°C° 0 mm 1 m/s 742 mmHg 61%
    09:00 +23°C° 0 mm 1 m/s 743 mmHg 53%
    10:00 +24°C° 0 mm 2 m/s 743 mmHg 49%
    11:00 +25°C° 0 mm 2 m/s 742 mmHg 44%
    12:00 +27°C° 0 mm 2 m/s 742 mmHg 39%
    13:00 +27°C° 0 mm 2 m/s 742 mmHg 39%
    14:00 +28°C° 0 mm 2 m/s 742 mmHg 38%
    15:00 +28°C° 0 mm 3 m/s 742 mmHg 37%
    16:00 +27°C° 0 mm 3 m/s 742 mmHg 40%
    17:00 +26°C° 0 mm 2 m/s 741 mmHg 43%
    18:00 +25°C° 0 mm 2 m/s 741 mmHg 47%
    19:00 +24°C° 0 mm 2 m/s 741 mmHg 48%
    20:00 +21°C° 0 mm 2 m/s 741 mmHg 49%
    21:00 +21°C° 0 mm 1 m/s 741 mmHg 50%
    22:00 +20°C° 0 mm 1 m/s 741 mmHg 51%
    23:00 +20°C° 0 mm 1 m/s 741 mmHg 52%
    Arată mai mult